Dewpoint
10 10 10 9 10 11 11 13 13 12 12 12 11 12 11 10 6 4 9 10 12 12 12 11 10 11 10 11 11 11 9 9 10 10 11 12 12 12 11 11 12 11 6
8 8 8 9 10 11 11 12 13 13 12 12 11 12 11 11 9 6 6 10 12 12 13 12 12 11 11 12 11 10 10 10 9 10 10 10 10 11 12 12 12 13 13
7 8 8 9 10 10 11 12 13 12 12 12 11 11 9 8 10 6 9 10 12 12 12 13 13 12 12 12 11 11 12 11 11 11 10 10 10 5 4 10 12 12 13
7 7 9 10 10 10 11 11 12 12 11 12 11 10 8 10 10 7 11 9 11 12 12 12 12 10 12 12 12 12 12 13 12 13 12 12 12 12 12 10 9 9 11
8 9 10 10 11 11 11 11 11 10 11 12 12 10 9 10 10 11 11 8 9 11 12 12 12 11 12 12 12 12 13 12 12 12 12 12 12 13 13 13 10 10 9
10 11 11 11 12 11 10 10 11 11 10 11 12 12 11 12 13 11 7 3 7 10 11 11 11 11 10 10 12 12 12 11 11 11 12 12 12 12 12 13 13 12 11
11 11 11 10 10 10 10 11 11 10 11 11 12 12 12 11 11 8 1 -1 6 6 7 8 8 8 8 9 10 10 10 9 11 11 10 11 11 11 11 12 12 12 12
11 11 11 11 10 10 9 10 10 11 12 12 10 10 10 9 8 7 7 -1 -1 4 7 7 8 8 7 7 9 9 7 6 6 6 8 9 8 7 7 6 4 7 11
11 11 11 11 11 10 10 9 9 11 11 11 10 8 1 3 7 5 -1 -3 -4 3 7 7 7 7 8 9 9 9 9 7 5 2 2 1 -0 -0 -1 -3 -2 4 6
11 11 10 10 10 10 10 9 10 10 10 10 9 9 3 -1 -1 -4 -0 -5 -7 -6 -4 2 6 8 9 9 10 9 8 5 2 -0 -4 -6 -7 -6 -6 -5 -3 -0 3
11 11 10 10 10 9 9 8 7 8 8 8 7 6 4 -0 -2 -2 -4 -6 -8 -8 -8 -8 -4 2 5 7 8 7 4 0 -3 -5 -7 -8 0 7 8 7 4 5 4
11 10 10 11 10 8 9 8 6 1 -1 -1 -1 -1 -2 -5 -5 -6 -8 -7 -7 -8 -8 -8 -7 -7 -6 -2 -1 -3 -5 -6 -7 -10 -7 7 8 8 8 6 4 2 1
10 10 10 10 11 9 8 7 6 2 4 0 -2 -4 -5 -5 -6 -7 -7 -9 -10 -11 -11 -12 -12 -11 -10 -7 -7 -8 -10 -12 -11 -7 7 8 7 5 3 1 1 1 1
9 9 9 10 10 10 9 7 6 5 5 3 -1 -2 -2 -4 -5 -7 -9 -11 -11 -11 -12 -14 -14 -14 -15 -15 -15 -16 -15 -14 -9 -3 5 7 4 4 4 0 -1 -5 -9
8 9 9 10 10 10 10 9 7 4 -0 -2 -1 -1 -2 -3 -5 -7 -10 -11 -11 -11 -12 -13 -14 -15 -16 -16 -16 -16 -14 -12 -9 -5 -1 2 -3 -8 -13 -13 -14 -19 -23
7 7 9 9 10 10 10 10 8 2 -0 -0 -1 -1 -2 -3 -5 -7 -9 -10 -10 -11 -12 -14 -15 -15 -16 -16 -16 -16 -16 -14 -11 -8 -5 -7 -10 -15 -24 -28 -31 -32 -31
4 7 8 9 9 10 10 10 9 3 2 2 0 0 1 -2 -4 -6 -8 -9 -10 -11 -13 -15 -15 -16 -16 -17 -19 -19 -19 -18 -16 -12 -8 -10 -12 -16 -27 -30 -30 -30 -29
4 7 8 9 9 9 9 9 9 7 5 3 0 0 1 1 -2 -2 -5 -8 -10 -12 -13 -14 -16 -16 -17 -18 -20 -22 -23 -22 -20 -18 -18 -20 -23 -25 -26 -28 -28 -29 -31
5 6 9 8 8 8 8 9 9 9 6 3 1 1 1 1 -0 -1 -4 -8 -10 -11 -12 -14 -15 -16 -16 -18 -20 -22 -24 -23 -23 -24 -23 -24 -24 -26 -26 -27 -28 -30 -30
5 6 8 8 8 8 8 8 8 7 6 3 1 1 1 1 -1 -2 -5 -7 -10 -10 -12 -13 -14 -14 -17 -18 -19 -21 -22 -22 -22 -23 -23 -23 -24 -25 -26 -26 -27 -28 -29
7 7 8 8 7 8 7 7 6 6 5 3 2 1 1 -1 -3 -4 -5 -7 -9 -10 -12 -12 -14 -16 -16 -18 -20 -21 -21 -21 -22 -22 -22 -22 -23 -24 -25 -26 -26 -27 -28
7 8 8 7 7 7 7 6 6 5 4 3 3 1 -1 -3 -3 -5 -7 -6 -8 -9 -13 -12 -13 -14 -18 -19 -20 -19 -19 -18 -21 -19 -20 -20 -21 -22 -23 -23 -24 -26 -27
7 8 6 6 6 7 6 6 6 4 3 2 1 -0 -2 -3 -5 -7 -9 -9 -8 -10 -11 -13 -12 -14 -15 -18 -19 -15 -14 -13 -14 -15 -16 -16 -18 -19 -20 -23 -24 -26 -26
6 6 6 6 6 6 6 5 5 5 4 3 2 1 -2 -4 -7 -8 -9 -11 -12 -9 -10 -12 -12 -14 -14 -16 -19 -19 -17 -15 -13 -13 -14 -15 -18 -20 -23 -24 -23 -24 -25
3 4 4 5 5 5 5 4 4 3 3 2 1 -1 -3 -6 -9 -11 -11 -12 -12 -14 -14 -14 -15 -12 -15 -16 -18 -18 -22 -20 -16 -16 -14 -15 -15 -15 -16 -16 -19 -22 -24
2 3 3 4 4 4 2 2 2 1 1 0 0 -0 -1 -5 -7 -11 -12 -13 -13 -13 -15 -16 -16 -17 -15 -16 -17 -18 -21 -23 -23 -23 -20 -16 -15 -16 -16 -18 -20 -22 -22
Wind_Speed
10 9 10 13 13 13 12 12 12 15 18 17 16 16 15 13 12 12 12 12 12 15 16 17 17 18 19 20 21 21 20 19 21 21 19 20 20 19 19 19 20 18 16
6 6 10 15 15 14 13 12 12 11 13 16 17 19 16 13 12 11 12 13 13 15 17 19 19 20 21 20 21 22 21 21 20 20 20 19 17 17 17 17 18 19 19
4 5 10 14 15 14 14 13 13 14 14 16 17 18 17 17 15 13 14 16 15 16 17 20 20 20 22 20 22 21 21 20 19 20 20 21 19 17 16 15 16 17 17
5 8 11 12 13 13 13 15 15 13 14 17 18 18 19 18 18 20 18 18 14 16 17 17 17 20 22 21 22 21 20 20 19 20 20 20 19 19 18 16 17 16 15
6 4 5 8 11 13 14 14 14 13 12 16 19 20 21 21 24 27 24 21 16 16 16 17 19 23 24 22 21 21 18 17 15 15 18 19 19 18 19 19 16 15 16
6 5 7 8 10 12 13 16 14 13 15 16 19 21 24 29 30 36 27 19 13 20 16 14 17 20 22 21 19 18 17 15 13 12 13 13 15 14 14 16 17 16 14
10 8 8 8 8 7 8 9 13 8 19 16 17 32 24 37 32 31 28 22 13 14 14 15 19 20 21 21 19 17 14 13 14 12 9 13 13 12 11 11 13 14 14
12 11 8 6 7 6 7 8 4 15 24 28 14 16 19 25 25 23 23 19 9 11 15 16 18 19 20 20 20 17 12 9 10 12 13 13 13 11 10 9 9 10 11
15 13 11 9 5 4 4 7 12 18 21 22 22 22 22 16 18 22 17 15 12 15 15 16 17 18 19 19 18 15 10 8 7 8 9 9 9 9 8 7 7 7 8
18 15 13 13 10 7 9 14 19 22 22 21 22 19 22 18 16 20 17 14 14 15 15 16 16 17 18 17 15 13 11 8 6 7 7 7 7 7 6 7 7 8 8
22 19 17 16 13 12 13 17 17 19 18 18 23 25 22 21 18 17 16 15 16 15 14 15 17 18 17 16 14 12 10 8 7 6 7 9 10 13 14 13 9 10 9
25 23 20 19 18 18 15 19 22 24 22 22 22 24 21 21 20 21 19 18 16 15 15 15 15 15 16 15 14 13 10 8 8 9 13 15 16 16 14 11 8 8 7
24 26 23 22 22 21 20 22 23 23 24 26 25 24 21 21 17 16 15 16 16 15 15 14 14 14 13 14 14 13 11 11 11 13 17 17 15 10 8 7 6 5 4
26 27 27 26 25 26 22 23 23 21 16 15 15 17 22 20 18 18 16 15 12 10 12 14 13 13 13 13 13 13 13 12 13 14 17 17 11 11 10 7 7 4 3
27 28 28 30 30 30 27 25 26 24 21 16 15 14 11 9 11 13 12 14 14 11 10 11 12 13 13 14 15 14 13 13 13 14 15 15 10 5 3 3 2 1 1
25 28 29 32 32 31 28 25 27 26 23 21 19 15 15 13 13 12 11 10 10 10 10 10 11 11 12 13 14 13 12 12 12 13 14 9 5 5 4 3 2 2 3
26 26 32 33 35 35 31 28 29 28 26 23 23 21 19 18 16 16 15 16 16 14 13 13 12 12 12 13 13 13 12 11 11 12 12 11 9 8 5 4 2 1 1
22 28 25 35 35 35 33 31 29 29 27 26 24 24 23 19 17 16 16 15 15 14 13 13 12 13 13 12 13 13 11 11 11 11 10 9 7 5 4 4 3 2 2
23 25 29 31 37 36 35 34 32 30 29 26 25 24 23 22 21 19 17 17 15 13 13 12 12 11 11 12 12 12 12 11 10 9 9 9 8 6 6 5 4 3 3
25 25 27 31 34 36 35 34 33 31 29 27 26 24 23 23 21 19 19 18 17 15 16 14 13 12 11 10 10 10 9 9 10 10 9 8 8 8 8 8 6 6 6
28 28 29 30 32 35 38 36 33 32 31 29 28 27 26 25 24 22 21 19 18 17 15 14 14 14 14 13 13 12 11 10 10 11 10 9 10 8 9 8 7 8 8
27 29 29 29 31 33 35 36 35 34 32 30 30 29 27 26 25 23 22 20 19 18 20 17 15 16 17 17 14 12 10 11 13 12 11 11 10 9 10 9 9 8 8
25 26 27 28 29 33 34 34 35 32 31 32 31 29 29 29 27 26 24 22 22 21 19 18 17 17 18 18 17 9 7 6 12 12 11 11 10 10 11 9 9 9 10
19 18 20 24 27 30 31 32 34 35 35 34 32 30 30 31 30 28 27 26 24 23 22 20 18 17 17 17 19 19 13 7 8 9 12 11 10 11 11 10 10 11 10
19 16 14 18 21 25 27 27 30 31 31 30 30 29 30 31 31 30 29 29 27 25 23 21 20 19 18 18 19 18 19 16 13 10 10 14 13 12 11 8 10 12 11
17 17 12 14 20 18 21 22 23 26 27 29 29 30 30 31 31 30 28 28 28 26 26 24 24 23 23 21 20 20 19 19 19 18 14 14 13 13 12 11 11 11 11
Wind_Direction
204 208 208 200 200 199 192 181 194 201 200 185 178 166 158 156 141 138 137 133 132 136 138 137 135 134 132 128 122 119 123 122 114 114 116 115 115 113 114 115 110 107 109
203 199 205 201 204 207 202 198 200 195 186 189 191 192 190 176 145 138 148 141 132 132 139 136 135 135 128 127 125 120 117 114 114 114 112 107 103 109 111 115 116 111 109
196 209 208 205 206 211 212 207 202 198 196 195 190 193 197 200 183 150 151 145 134 131 138 135 132 140 129 127 127 125 122 122 123 121 115 106 103 102 104 109 109 110 109
205 210 204 205 205 206 210 212 209 203 200 199 189 182 178 176 178 168 158 156 145 136 136 139 137 136 126 129 128 127 126 120 122 116 118 116 104 105 107 106 106 106 108
192 195 200 198 202 213 216 220 221 218 211 199 194 188 188 176 166 161 149 147 157 143 140 139 132 133 133 133 128 123 125 133 130 127 118 120 118 111 106 104 106 106 106
167 173 160 178 191 215 221 225 221 213 212 211 202 192 181 163 135 146 135 121 135 154 157 153 145 140 138 137 135 133 140 147 148 144 148 145 127 132 122 115 113 112 113
168 174 171 159 169 191 204 210 212 226 202 181 144 157 124 131 136 136 122 111 133 156 162 143 145 145 143 144 141 143 151 154 166 169 172 163 138 138 133 130 124 126 125
170 167 166 165 175 198 215 215 181 156 163 185 189 114 117 113 122 130 139 119 151 165 155 151 148 147 147 151 155 155 164 159 142 137 127 123 123 126 130 135 143 144 137
170 180 190 166 155 147 174 176 175 172 158 172 192 190 103 106 128 116 115 131 177 169 157 152 148 148 150 154 160 162 169 167 149 131 134 138 135 136 143 140 136 132 132
175 183 173 164 153 142 150 146 156 156 155 156 156 157 130 122 123 129 136 152 160 159 162 155 155 154 158 163 170 176 184 180 171 152 137 139 138 142 139 137 134 132 136
180 184 183 167 156 147 156 147 139 146 148 145 144 136 134 142 141 139 153 169 172 163 158 157 161 163 166 171 177 189 195 184 185 170 152 132 124 115 114 115 137 126 132
182 190 194 179 171 159 170 172 166 152 149 143 137 135 150 161 166 161 167 168 167 159 158 162 168 170 174 176 182 191 194 191 174 151 138 130 129 128 132 137 148 140 145
187 191 190 194 188 182 183 172 167 164 157 156 157 156 156 157 156 154 156 158 168 165 162 163 169 173 173 178 180 192 184 175 162 157 140 144 138 136 137 136 125 121 138
196 195 197 197 199 194 185 181 169 170 176 173 162 160 160 163 164 160 161 155 164 173 174 168 174 175 176 180 182 195 180 173 172 172 164 152 147 133 124 140 142 166 186
206 203 199 199 203 200 195 192 190 189 189 189 188 180 176 171 173 172 169 166 166 181 187 181 178 179 177 175 178 195 185 179 182 188 186 185 197 209 178 150 169 208 264
213 212 201 200 202 205 205 203 200 199 196 194 202 204 202 193 187 186 193 197 202 197 186 183 184 183 181 179 180 193 194 192 189 199 207 214 221 211 235 232 239 268 293
222 216 207 203 205 207 210 212 204 202 204 205 201 204 208 201 196 193 196 199 200 197 188 187 187 183 184 182 181 193 198 195 197 202 211 220 218 228 235 243 249 250 282
224 219 215 205 210 210 212 215 213 209 210 208 209 210 205 205 203 201 201 200 198 195 193 194 191 188 185 182 181 180 200 198 200 205 213 221 225 226 223 226 236 228 242
229 222 214 209 211 214 217 220 219 217 214 210 211 210 208 206 204 204 202 199 196 197 199 199 197 197 196 190 185 183 187 199 211 220 219 226 232 229 240 243 244 254 272
220 224 219 212 213 214 217 219 217 215 216 214 214 212 210 209 210 207 202 202 197 196 197 201 204 202 201 201 194 190 191 203 211 215 229 237 244 240 241 250 256 262 271
211 218 215 214 215 213 214 215 213 215 215 214 214 215 215 212 210 206 208 206 204 201 198 204 203 199 198 197 195 186 193 202 221 232 229 236 244 252 253 257 266 280 293
208 213 215 220 219 217 217 218 219 215 216 219 218 216 213 214 214 213 207 212 205 208 199 201 211 206 204 202 200 192 193 202 212 221 235 244 241 248 251 255 262 268 279
186 204 219 222 221 220 216 217 220 218 218 216 217 216 214 214 215 214 210 208 214 209 208 204 209 211 214 209 207 195 188 204 195 213 222 240 248 247 255 256 271 279 287
162 186 208 221 221 218 218 219 224 223 220 221 222 219 216 214 214 213 214 210 208 215 216 209 218 218 222 224 218 218 224 212 187 192 215 225 237 244 253 268 283 287 286
183 181 180 204 213 215 219 224 227 229 229 231 227 224 219 216 215 212 211 213 214 209 210 215 214 216 225 223 223 225 222 221 216 207 197 211 219 229 242 263 287 285 287
187 187 157 170 202 214 220 224 229 233 233 231 231 229 226 221 219 217 218 218 218 215 211 206 211 214 216 221 224 225 229 227 230 225 220 213 222 233 248 272 280 279 280
Height
1480 1481 1482 1484 1486 1487 1488 1490 1491 1492 1493 1495 1497 1499 1501 1504 1505 1505 1507 1510 1512 1512 1514 1516 1517 1519 1520 1523 1523 1524 1526 1527 1528 1529 1530 1532 1533 1533 1534 1535 1536 1537 1538
1478 1480 1481 1482 1485 1486 1487 1488 1490 1490 1492 1494 1496 1497 1500 1499 1504 1504 1508 1510 1512 1513 1516 1517 1519 1520 1522 1524 1524 1525 1527 1528 1530 1531 1532 1533 1535 1535 1537 1538 1538 1539 1540
1477 1479 1480 1482 1483 1485 1486 1487 1489 1489 1490 1492 1494 1496 1499 1500 1501 1503 1507 1509 1513 1515 1518 1518 1519 1520 1523 1525 1526 1527 1528 1529 1531 1533 1534 1535 1537 1538 1539 1539 1540 1541 1542
1476 1477 1479 1480 1482 1483 1484 1486 1487 1488 1490 1492 1493 1495 1497 1498 1500 1503 1506 1508 1513 1516 1518 1518 1520 1521 1524 1526 1528 1529 1530 1531 1533 1534 1535 1537 1539 1540 1541 1541 1542 1543 1544
1474 1475 1477 1479 1480 1482 1483 1484 1486 1488 1489 1491 1492 1493 1495 1497 1500 1501 1505 1507 1514 1517 1519 1519 1522 1523 1525 1527 1529 1531 1532 1533 1535 1536 1537 1539 1540 1541 1542 1542 1544 1545 1547
1473 1474 1476 1478 1479 1479 1480 1481 1483 1485 1487 1490 1491 1494 1493 1496 1495 1495 1501 1506 1513 1516 1518 1520 1523 1525 1527 1529 1530 1531 1532 1534 1536 1538 1539 1540 1541 1543 1544 1545 1546 1547 1549
1471 1474 1475 1477 1478 1478 1478 1479 1482 1483 1483 1486 1487 1487 1482 1482 1490 1495 1501 1505 1513 1516 1519 1521 1523 1526 1528 1530 1531 1531 1532 1535 1537 1538 1539 1540 1542 1543 1544 1546 1546 1547 1549
1470 1473 1474 1475 1477 1478 1477 1478 1480 1481 1477 1480 1479 1482 1484 1480 1493 1497 1500 1506 1513 1517 1519 1521 1523 1525 1528 1530 1532 1532 1533 1535 1537 1538 1539 1541 1542 1544 1544 1545 1546 1547 1549
1469 1471 1473 1475 1477 1477 1476 1477 1479 1479 1478 1479 1481 1482 1487 1493 1495 1496 1503 1509 1514 1516 1519 1521 1523 1526 1528 1530 1532 1533 1534 1536 1538 1539 1540 1541 1543 1544 1545 1545 1546 1547 1548
1468 1470 1471 1473 1476 1478 1477 1478 1479 1480 1478 1480 1481 1485 1489 1497 1502 1502 1505 1510 1513 1516 1519 1520 1523 1525 1528 1529 1532 1533 1534 1536 1537 1539 1540 1541 1543 1544 1545 1545 1546 1546 1547
1467 1468 1469 1471 1475 1477 1478 1479 1481 1483 1482 1482 1482 1483 1490 1500 1504 1505 1507 1509 1512 1515 1517 1519 1522 1525 1526 1528 1531 1532 1534 1536 1536 1539 1540 1541 1543 1544 1545 1545 1546 1546 1545
1463 1467 1469 1470 1472 1474 1476 1477 1479 1480 1483 1485 1486 1489 1496 1500 1502 1503 1507 1509 1512 1513 1516 1518 1521 1523 1524 1527 1529 1530 1532 1535 1536 1538 1539 1541 1542 1543 1544 1545 1545 1545 1545
1460 1464 1468 1470 1470 1472 1473 1476 1480 1483 1484 1484 1487 1492 1494 1497 1501 1504 1506 1509 1512 1512 1514 1517 1520 1521 1524 1527 1529 1529 1532 1533 1535 1536 1539 1540 1541 1542 1542 1542 1543 1544 1544
1455 1460 1464 1468 1470 1471 1473 1475 1479 1483 1485 1487 1489 1491 1493 1495 1498 1501 1504 1505 1508 1511 1513 1516 1518 1520 1523 1526 1528 1528 1531 1533 1536 1535 1537 1539 1539 1541 1542 1542 1542 1542 1543
1451 1455 1459 1463 1467 1470 1473 1475 1477 1479 1483 1486 1489 1490 1493 1494 1496 1499 1501 1504 1506 1509 1512 1515 1518 1520 1522 1525 1526 1527 1530 1532 1534 1535 1536 1536 1537 1539 1541 1542 1542 1542 1542
1447 1449 1454 1459 1463 1467 1469 1473 1476 1478 1481 1484 1487 1489 1493 1495 1498 1500 1502 1503 1505 1507 1510 1514 1518 1519 1521 1524 1525 1526 1529 1531 1533 1534 1535 1536 1538 1539 1539 1540 1541 1541 1542
1440 1444 1448 1454 1459 1463 1467 1470 1474 1477 1479 1482 1484 1487 1492 1495 1496 1499 1502 1505 1506 1509 1510 1513 1516 1518 1520 1523 1524 1525 1527 1530 1531 1533 1535 1535 1536 1538 1538 1539 1539 1539 1540
1435 1439 1444 1450 1453 1459 1463 1466 1470 1473 1476 1479 1482 1485 1489 1491 1493 1496 1500 1503 1505 1506 1509 1513 1515 1517 1518 1520 1523 1524 1525 1528 1530 1531 1532 1534 1535 1535 1536 1537 1537 1538 1538
1430 1434 1439 1444 1449 1454 1459 1463 1467 1471 1474 1477 1480 1483 1486 1487 1490 1493 1496 1500 1502 1505 1508 1511 1514 1516 1517 1519 1521 1523 1524 1526 1528 1529 1531 1532 1533 1534 1534 1535 1536 1536 1536
1427 1431 1435 1439 1443 1449 1454 1458 1463 1467 1470 1474 1477 1480 1482 1485 1487 1490 1494 1497 1500 1502 1506 1509 1511 1512 1515 1517 1519 1522 1523 1526 1526 1528 1529 1530 1530 1531 1532 1532 1534 1534 1534
1426 1428 1431 1434 1439 1443 1447 1451 1456 1460 1465 1470 1474 1477 1479 1482 1485 1489 1493 1495 1497 1500 1503 1505 1508 1510 1512 1515 1517 1518 1521 1523 1523 1524 1526 1528 1528 1529 1530 1532 1532 1533 1533
1423 1426 1428 1430 1433 1438 1444 1448 1453 1457 1462 1467 1470 1473 1477 1480 1483 1487 1489 1492 1495 1498 1500 1503 1505 1507 1510 1512 1515 1516 1519 1521 1520 1522 1522 1524 1525 1526 1526 1529 1529 1530 1530
1420 1423 1426 1428 1431 1432 1438 1444 1449 1454 1457 1460 1465 1470 1473 1476 1480 1483 1486 1489 1493 1495 1498 1500 1502 1504 1507 1510 1511 1513 1514 1515 1517 1519 1521 1522 1522 1523 1524 1525 1526 1526 1526
1419 1421 1424 1427 1429 1432 1434 1439 1444 1448 1452 1456 1461 1465 1469 1473 1476 1480 1483 1486 1489 1492 1495 1496 1500 1502 1504 1506 1509 1510 1510 1512 1513 1517 1518 1519 1521 1522 1521 1522 1523 1524 1523
1416 1418 1421 1425 1428 1430 1433 1436 1440 1445 1450 1453 1457 1460 1464 1468 1472 1475 1478 1482 1484 1486 1490 1493 1495 1496 1501 1502 1503 1505 1507 1509 1510 1512 1513 1515 1517 1518 1519 1518 1520 1521 1519
1416 1419 1420 1423 1425 1430 1432 1434 1436 1441 1445 1449 1453 1456 1459 1463 1467 1471 1475 1478 1480 1483 1485 1487 1489 1493 1496 1497 1500 1501 1504 1505 1505 1507 1507 1510 1512 1515 1515 1516 1516 1517 1516